When you browse on this site, cookies collect data to enhance your experience and personalize the content and advertising you see.
Visit our Privacy Policy to learn more. By continuing to use the site, you agree to this use of cookies and data.
EN

Hourly Weather Canelas

Today, 6 August, Thursday

Time Temperature Precipitation Wind Pressure Humidity
00:00 +21°C° 0 mm 2 mps 748 mmHg 53%
01:00 +21°C° 0 mm 2 mps 747 mmHg 52%
02:00 +21°C° 0 mm 2 mps 747 mmHg 51%
03:00 +21°C° 0 mm 2 mps 747 mmHg 51%
04:00 +21°C° 0 mm 2 mps 747 mmHg 51%
05:00 +21°C° 0 mm 2 mps 747 mmHg 51%
06:00 +25°C° 0 mm 2 mps 747 mmHg 44%
07:00 +28°C° 0 mm 2 mps 747 mmHg 38%
08:00 +32°C° 0 mm 2 mps 747 mmHg 31%
09:00 +34°C° 0 mm 2 mps 747 mmHg 29%
10:00 +35°C° 0 mm 3 mps 747 mmHg 28%
11:00 +36°C° 0 mm 3 mps 747 mmHg 27%
12:00 +36°C° 0 mm 4 mps 747 mmHg 28%
13:00 +35°C° 0 mm 4 mps 747 mmHg 29%
14:00 +35°C° 0 mm 4 mps 747 mmHg 30%
15:00 +34°C° 0 mm 4 mps 747 mmHg 35%
16:00 +31°C° 0 mm 3 mps 747 mmHg 40%
17:00 +29°C° 0 mm 3 mps 747 mmHg 44%
18:00 +27°C° 0 mm 3 mps 748 mmHg 54%
19:00 +25°C° 0 mm 3 mps 748 mmHg 64%
20:00 +21°C° 0 mm 3 mps 748 mmHg 74%
21:00 +21°C° 0 mm 2 mps 748 mmHg 73%
22:00 +21°C° 0 mm 2 mps 749 mmHg 72%
23:00 +21°C° 0 mm 2 mps 749 mmHg 72%

Tomorrow, 7 August, Friday

Time Temperature Precipitation Wind Pressure Humidity
00:00 +20°C° 0 mm 2 mps 749 mmHg 72%
01:00 +21°C° 0 mm 1 mps 749 mmHg 72%
02:00 +21°C° 0 mm 1 mps 749 mmHg 73%
03:00 +21°C° 0 mm 1 mps 749 mmHg 75%
04:00 +20°C° 0 mm 1 mps 749 mmHg 78%
05:00 +20°C° 0 mm 1 mps 749 mmHg 80%
06:00 +21°C° 0 mm 2 mps 750 mmHg 74%
07:00 +24°C° 0 mm 2 mps 750 mmHg 67%
08:00 +26°C° 0 mm 2 mps 750 mmHg 61%
09:00 +27°C° 0 mm 2 mps 751 mmHg 56%
10:00 +29°C° 0 mm 3 mps 751 mmHg 51%
11:00 +30°C° 0 mm 3 mps 751 mmHg 46%
12:00 +30°C° 0 mm 4 mps 751 mmHg 47%
13:00 +30°C° 0 mm 4 mps 750 mmHg 48%
14:00 +29°C° 0 mm 4 mps 750 mmHg 49%
15:00 +28°C° 0 mm 4 mps 751 mmHg 52%
16:00 +27°C° 0 mm 4 mps 751 mmHg 55%
17:00 +26°C° 0 mm 4 mps 751 mmHg 58%
18:00 +23°C° 0 mm 4 mps 751 mmHg 67%
19:00 +21°C° 0 mm 4 mps 752 mmHg 76%
20:00 +19°C° 0 mm 3 mps 752 mmHg 85%
21:00 +19°C° 0 mm 3 mps 752 mmHg 86%
22:00 +19°C° 0 mm 2 mps 752 mmHg 87%
23:00 +19°C° 0 mm 2 mps 752 mmHg 88%

Day after tomorrow, 8 August, Saturday

Time Temperature Precipitation Wind Pressure Humidity
00:00 +18°C° 0 mm 2 mps 752 mmHg 87%
01:00 +19°C° 0 mm 1 mps 752 mmHg 86%
02:00 +19°C° 0 mm 1 mps 752 mmHg 85%
03:00 +19°C° 0 mm 1 mps 752 mmHg 84%
04:00 +19°C° 0 mm 1 mps 752 mmHg 83%
05:00 +19°C° 0 mm 1 mps 751 mmHg 82%
06:00 +22°C° 0 mm 1 mps 752 mmHg 73%
07:00 +24°C° 0 mm 1 mps 752 mmHg 64%
08:00 +27°C° 0 mm 1 mps 752 mmHg 55%
09:00 +28°C° 0 mm 2 mps 752 mmHg 51%
10:00 +30°C° 0 mm 2 mps 751 mmHg 48%
11:00 +31°C° 0 mm 3 mps 751 mmHg 44%
12:00 +31°C° 0 mm 3 mps 751 mmHg 43%
13:00 +32°C° 0 mm 4 mps 751 mmHg 43%
14:00 +32°C° 0 mm 4 mps 750 mmHg 42%
15:00 +29°C° 0 mm 4 mps 750 mmHg 45%
16:00 +28°C° 0 mm 4 mps 750 mmHg 49%
17:00 +27°C° 0 mm 3 mps 750 mmHg 52%
18:00 +25°C° 0 mm 3 mps 750 mmHg 62%
19:00 +22°C° 0 mm 3 mps 751 mmHg 71%
20:00 +20°C° 0 mm 2 mps 751 mmHg 81%
21:00 +20°C° 0 mm 2 mps 751 mmHg 84%
22:00 +19°C° 0 mm 2 mps 751 mmHg 86%
23:00 +20°C° 0 mm 1 mps 750 mmHg 88%

9 August, Sunday

Time Temperature Precipitation Wind Pressure Humidity
00:00 +19°C° 0 mm 1 mps 750 mmHg 89%
01:00 +18°C° 0 mm 2 mps 750 mmHg 90%
02:00 +18°C° 0 mm 2 mps 749 mmHg 90%
03:00 +18°C° 0 mm 2 mps 750 mmHg 90%
04:00 +19°C° 0 mm 1 mps 750 mmHg 90%
05:00 +19°C° 0 mm 1 mps 750 mmHg 90%
06:00 +21°C° 0 mm 1 mps 750 mmHg 83%
07:00 +23°C° 0 mm 1 mps 750 mmHg 76%
08:00 +25°C° 0 mm 1 mps 750 mmHg 68%
09:00 +26°C° 0 mm 2 mps 750 mmHg 63%
10:00 +27°C° 0 mm 2 mps 750 mmHg 58%
11:00 +29°C° 0 mm 3 mps 750 mmHg 52%
12:00 +29°C° 0 mm 3 mps 749 mmHg 52%
13:00 +29°C° 0 mm 4 mps 749 mmHg 52%
14:00 +29°C° 0 mm 4 mps 749 mmHg 51%
15:00 +28°C° 0 mm 4 mps 749 mmHg 55%
16:00 +26°C° 0 mm 4 mps 749 mmHg 59%
17:00 +25°C° 0 mm 4 mps 749 mmHg 62%
18:00 +22°C° 0 mm 3 mps 749 mmHg 71%
19:00 +21°C° 0 mm 3 mps 749 mmHg 80%
20:00 +19°C° 0 mm 2 mps 750 mmHg 90%
21:00 +18°C° 0 mm 2 mps 749 mmHg 90%
22:00 +18°C° 0 mm 2 mps 749 mmHg 91%
23:00 +18°C° 0 mm 2 mps 749 mmHg 91%

10 August, Monday

Time Temperature Precipitation Wind Pressure Humidity
00:00 +19°C° 0 mm 1 mps 749 mmHg 91%
01:00 +19°C° 0 mm 1 mps 749 mmHg 91%
02:00 +19°C° 0 mm 1 mps 748 mmHg 90%
03:00 +18°C° 0 mm 1 mps 748 mmHg 90%
04:00 +18°C° 0 mm 1 mps 748 mmHg 89%
05:00 +18°C° 0 mm 1 mps 749 mmHg 88%
06:00 +21°C° 0 mm 1 mps 749 mmHg 79%
07:00 +23°C° 0 mm 1 mps 749 mmHg 69%
08:00 +24°C° 0 mm 0 mps 749 mmHg 60%
09:00 +27°C° 0 mm 1 mps 748 mmHg 55%
10:00 +29°C° 0 mm 2 mps 748 mmHg 50%
11:00 +30°C° 0 mm 3 mps 748 mmHg 46%
12:00 +30°C° 0 mm 3 mps 748 mmHg 47%
13:00 +30°C° 0 mm 3 mps 747 mmHg 48%
14:00 +30°C° 0 mm 4 mps 747 mmHg 49%
15:00 +29°C° 0 mm 4 mps 747 mmHg 51%
16:00 +28°C° 0 mm 3 mps 747 mmHg 53%
17:00 +27°C° 0 mm 3 mps 747 mmHg 55%
18:00 +26°C° 0 mm 3 mps 747 mmHg 63%
19:00 +24°C° 0 mm 2 mps 748 mmHg 71%
20:00 +21°C° 0 mm 2 mps 748 mmHg 79%
21:00 +20°C° 0 mm 2 mps 748 mmHg 80%
22:00 +20°C° 0 mm 2 mps 748 mmHg 81%
23:00 +20°C° 0 mm 1 mps 748 mmHg 82%

11 August, Tuesday

Time Temperature Precipitation Wind Pressure Humidity
00:00 +19°C° 0 mm 2 mps 748 mmHg 82%
01:00 +19°C° 0 mm 2 mps 747 mmHg 82%
02:00 +19°C° 0 mm 2 mps 747 mmHg 82%
03:00 +18°C° 0 mm 2 mps 747 mmHg 83%
04:00 +18°C° 0 mm 2 mps 747 mmHg 84%
05:00 +18°C° 0 mm 2 mps 747 mmHg 84%
06:00 +21°C° 0 mm 2 mps 747 mmHg 74%
07:00 +25°C° 0 mm 2 mps 747 mmHg 64%
08:00 +27°C° 0 mm 2 mps 748 mmHg 53%
09:00 +28°C° 0 mm 3 mps 748 mmHg 50%
10:00 +29°C° 0 mm 4 mps 747 mmHg 46%
11:00 +30°C° 0 mm 5 mps 747 mmHg 43%
12:00 +30°C° 0 mm 4 mps 747 mmHg 45%
13:00 +30°C° 0 mm 4 mps 747 mmHg 47%
14:00 +29°C° 0 mm 4 mps 746 mmHg 49%
15:00 +28°C° 0 mm 3 mps 746 mmHg 51%
16:00 +27°C° 0 mm 3 mps 747 mmHg 54%
17:00 +26°C° 0 mm 2 mps 747 mmHg 57%
18:00 +24°C° 0 mm 2 mps 747 mmHg 66%
19:00 +21°C° 0 mm 2 mps 747 mmHg 75%
20:00 +19°C° 0 mm 2 mps 747 mmHg 85%
21:00 +19°C° 0 mm 2 mps 747 mmHg 86%
22:00 +18°C° 0 mm 2 mps 747 mmHg 88%
23:00 +18°C° 0 mm 2 mps 747 mmHg 90%
Show more